Weather History for Houghton, MI

Change the Weather History Date:

Saturday, May 11, 2013

  Actual Average Record
Temperature  
Mean Temperature 38 °F -  
Max Temperature 43 °F 59 °F 82 °F (1961)
Min Temperature 33 °F 40 °F 27 °F (1963)
Degree Days  
Heating Degree Days 28    
Moisture  
Dew Point 31 °F    
Average Humidity 83    
Maximum Humidity 100    
Minimum Humidity 55    
Precipitation  
Precipitation 0.12 in - - ()
Sea Level Pressure  
Sea Level Pressure 29.85 in    
Wind  
Wind Speed 16 mph (NW)    
Max Wind Speed 26 mph    
Max Gust Speed 37 mph    
Visibility 6 miles    
Events Snow    
Averages and records for this station are not official NWS values.
T = Trace of Precipitation, MM = Missing Value Source: NWS Daily Summary

Daily Weather History Graph

Daily Weather History Graph

Search for Another Location

Airport:

Trip Planner

Search our weather history database for the weather conditions in past years. The results will help you decide how hot, cold, wet, or windy it might be!

Date:

Astronomy

May. 11, 2013 Rise Set
Actual Time 6:22 AM EDT 9:18 PM EDT
Civil Twilight 5:47 AM EDT 9:54 PM EDT
Nautical Twilight 5:01 AM EDT 10:40 PM EDT
Astronomical Twilight 4:07 AM EDT 11:35 PM EDT
Moon 7:28 AM EDT (5/11) 11:01 PM EDT (5/11)
Length of Visible Light 16h 07m
Length of Day
14h 55m
Waxing Crescent, 3% of the Moon is Illuminated
May 11
Waxing Crescent
May 18
First Quarter
May 25
Full
May 31
Last Quarter
Jun 8
New

Hourly Weather History & Observations

Time (EDT) Temp. Windchill Dew Point Humidity Pressure Visibility Wind Dir Wind Speed Gust Speed Precip Events Conditions
12:53 AM 34.0 °F 25.0 °F 25.0 °F 70% 29.89 in 10.0 mi SSE 12.7 mph - N/A   Overcast
1:53 AM 33.1 °F - 27.0 °F 78% 29.87 in 10.0 mi Calm Calm - N/A   Mostly Cloudy
2:53 AM 34.0 °F - 26.1 °F 73% 29.84 in 10.0 mi Calm Calm - N/A   Overcast
3:53 AM 36.0 °F 27.1 °F 27.0 °F 70% 29.83 in 10.0 mi NW 13.8 mph - N/A   Mostly Cloudy
4:53 AM 36.0 °F 28.5 °F 28.0 °F 73% 29.82 in 10.0 mi NW 10.4 mph - N/A   Overcast
5:53 AM 35.1 °F 24.8 °F 28.9 °F 78% 29.81 in 10.0 mi NW 17.3 mph - N/A   Overcast
6:26 AM 35.6 °F 26.2 °F 28.4 °F 75% 29.79 in 10.0 mi NW 15.0 mph - N/A   Overcast
6:44 AM 33.8 °F 23.9 °F 30.2 °F 87% 29.79 in 2.0 mi WNW 15.0 mph - 0.00 in Snow Light Snow
6:53 AM 33.1 °F 23.4 °F 30.9 °F 92% 29.83 in 2.0 mi WNW 13.8 mph - 0.01 in Snow Light Snow
7:00 AM 33.8 °F 24.3 °F 32.0 °F 93% 29.80 in 2.0 mi WNW 13.8 mph - 0.00 in Snow Light Snow
7:08 AM 33.8 °F 23.9 °F 32.0 °F 93% 29.80 in 1.2 mi WNW 15.0 mph - 0.00 in Snow Light Snow
7:20 AM 33.8 °F 24.3 °F 32.0 °F 93% 29.80 in 0.8 mi WNW 13.8 mph - 0.01 in Snow Light Snow
7:36 AM 33.8 °F 24.8 °F 32.0 °F 93% 29.80 in 1.0 mi WNW 12.7 mph - 0.02 in Snow Light Snow
7:45 AM 33.8 °F 23.9 °F 32.0 °F 93% 29.81 in 0.8 mi WNW 15.0 mph - 0.02 in Snow Light Snow
7:53 AM 33.1 °F 23.4 °F 32.0 °F 96% 29.85 in 1.0 mi WNW 13.8 mph - 0.02 in Snow Light Snow
8:16 AM 33.8 °F 23.5 °F 32.0 °F 93% 29.81 in 3.0 mi WNW 16.1 mph - 0.01 in Snow Light Snow
8:53 AM 36.0 °F 24.7 °F 30.9 °F 82% 29.84 in 10.0 mi NW 21.9 mph 29.9 mph 0.01 in   Overcast
9:05 AM 35.6 °F 25.2 °F 32.0 °F 87% 29.81 in 10.0 mi NW 18.4 mph - N/A   Overcast
9:49 AM 37.4 °F 28.2 °F 30.2 °F 75% 29.82 in 10.0 mi NW 16.1 mph 27.6 mph N/A   Overcast
9:53 AM 37.9 °F 28.9 °F 30.9 °F 76% 29.85 in 10.0 mi NW 16.1 mph 25.3 mph N/A   Overcast
10:33 AM 39.2 °F 29.0 °F 30.2 °F 70% 29.82 in 10.0 mi NW 21.9 mph 28.8 mph N/A   Mostly Cloudy
10:53 AM 41.0 °F 31.1 °F 30.0 °F 65% 29.85 in 10.0 mi NW 23.0 mph 29.9 mph N/A   Scattered Clouds
11:53 AM 41.0 °F 31.6 °F 28.0 °F 60% 29.86 in 10.0 mi NW 20.7 mph 28.8 mph N/A   Overcast
12:53 PM 39.9 °F 29.7 °F 28.0 °F 63% 29.86 in 10.0 mi WNW 23.0 mph 28.8 mph N/A   Overcast
1:53 PM 39.9 °F 30.5 °F 28.0 °F 63% 29.86 in 10.0 mi WNW 19.6 mph - N/A   Overcast
2:53 PM 39.9 °F 30.0 °F 28.0 °F 63% 29.86 in 10.0 mi West 21.9 mph 26.5 mph N/A   Overcast
3:53 PM 42.1 °F 33.1 °F 27.0 °F 55% 29.86 in 10.0 mi West 20.7 mph 28.8 mph N/A   Overcast
4:53 PM 41.0 °F 31.1 °F 30.0 °F 65% 29.86 in 10.0 mi West 23.0 mph 31.1 mph 0.00 in   Overcast
5:21 PM 37.4 °F 26.1 °F 32.0 °F 81% 29.83 in 7.0 mi WNW 24.2 mph 34.5 mph 0.00 in Snow Light Snow
5:27 PM 35.6 °F 23.7 °F 33.8 °F 93% 29.83 in 4.0 mi WNW 24.2 mph 35.7 mph 0.00 in Snow Light Snow
5:33 PM 35.6 °F 23.7 °F 33.8 °F 93% 29.84 in 2.5 mi WNW 24.2 mph 36.8 mph 0.00 in Snow Light Snow
5:37 PM 35.6 °F 24.2 °F 33.8 °F 93% 29.84 in 3.0 mi WNW 21.9 mph 36.8 mph 0.00 in Snow Light Snow
5:44 PM 35.6 °F 24.0 °F 33.8 °F 93% 29.84 in 5.0 mi WNW 23.0 mph 29.9 mph 0.00 in Snow Light Snow
5:53 PM 36.0 °F 25.0 °F 33.1 °F 89% 29.87 in 3.0 mi WNW 20.7 mph 28.8 mph 0.00 in Snow Light Snow
5:57 PM 35.6 °F 24.2 °F 33.8 °F 93% 29.84 in 1.8 mi WNW 21.9 mph - 0.01 in Snow Light Snow
6:08 PM 33.8 °F 22.5 °F 32.0 °F 93% 29.84 in 0.8 mi NW 19.6 mph 25.3 mph 0.03 in Snow Light Snow
6:36 PM 33.8 °F 21.0 °F 33.8 °F 100% 29.84 in 1.2 mi NW 25.3 mph 33.4 mph 0.04 in Snow Light Snow
6:53 PM 34.0 °F 21.0 °F 32.0 °F 92% 29.88 in 1.2 mi NW 26.5 mph 35.7 mph 0.05 in Snow Light Snow
7:06 PM 35.6 °F 24.0 °F 33.8 °F 93% 29.85 in 3.0 mi NW 23.0 mph 36.8 mph 0.01 in Snow Light Snow
7:53 PM 34.0 °F 22.4 °F 32.0 °F 92% 29.90 in 7.0 mi NW 20.7 mph 33.4 mph 0.01 in Snow Light Snow
8:20 PM 33.8 °F 21.9 °F 30.2 °F 87% 29.88 in 1.8 mi NW 21.9 mph 29.9 mph 0.00 in Snow Light Snow
8:40 PM 33.8 °F 22.2 °F 30.2 °F 87% 29.88 in 0.8 mi NW 20.7 mph 28.8 mph 0.01 in Snow Light Snow
8:53 PM 33.1 °F 21.2 °F 32.0 °F 96% 29.92 in 1.2 mi NW 20.7 mph - 0.01 in Snow Light Snow
8:56 PM 33.8 °F 22.2 °F 30.2 °F 87% 29.88 in 2.0 mi NW 20.7 mph 28.8 mph 0.00 in Snow Light Snow
9:04 PM 33.8 °F 21.9 °F 30.2 °F 87% 29.89 in 3.0 mi NNW 21.9 mph 29.9 mph 0.01 in Snow Light Snow
9:41 PM 33.8 °F 21.6 °F 30.2 °F 87% 29.89 in 10.0 mi NNW 23.0 mph 33.4 mph 0.01 in   Overcast
9:53 PM 34.0 °F 21.5 °F 30.9 °F 89% 29.93 in 10.0 mi NNW 24.2 mph 35.7 mph 0.01 in   Overcast
10:53 PM 34.0 °F 21.5 °F 30.0 °F 85% 29.94 in 10.0 mi NNW 24.2 mph 33.4 mph N/A   Overcast
11:00 PM 33.8 °F 22.2 °F 30.2 °F 87% 29.91 in 10.0 mi NNW 20.7 mph 29.9 mph 0.00 in Snow Light Snow
11:51 PM 33.8 °F 21.0 °F 30.2 °F 87% 29.93 in 1.8 mi NNW 25.3 mph 34.5 mph 0.00 in Snow Light Snow
11:52 PM 33.1 °F 20.1 °F 30.0 °F 89% 29.96 in 1.8 mi NNW 25.3 mph 34.5 mph 0.00 in Snow Light Snow